RH
28 27 25 24 23 23 23 23 23 23 24 24 24 23 23 23 23 23 23 23 22 21 20 17 12 7 6 5 2 2 2 1 3 7 10 8 5 8 7 4 14 18 13 15 14 15 16 12 20 35 47 50 50 52 53 62 71 73 73 72 71 70 74 75 70 74 79 73 73 74 66 67 72 75 76 72 74 76 75 77 75 76 79 74 66 68 79 85
22 24 25 24 23 23 23 22 22 22 22 23 23 23 23 23 23 24 23 24 23 21 17 13 8 6 6 4 4 5 5 8 12 18 17 11 8 8 8 4 13 18 12 14 11 14 15 11 28 44 49 49 48 50 49 60 68 68 73 72 67 65 70 72 69 72 72 70 72 73 69 68 70 72 73 72 73 71 71 79 79 81 86 79 73 80 92 95
20 19 19 21 21 21 21 21 21 21 21 21 21 21 21 22 23 23 24 25 23 20 15 9 6 6 6 4 8 11 14 19 22 24 20 16 12 8 9 4 10 18 12 13 9 11 13 13 36 50 48 44 43 48 53 64 68 68 72 68 66 64 67 75 73 71 71 72 73 71 71 70 71 70 70 72 70 67 66 73 75 78 85 87 88 92 95 95
20 19 18 17 17 17 19 19 19 19 19 19 19 19 20 20 22 23 24 24 23 21 16 8 6 6 6 8 14 18 20 23 25 28 23 21 16 8 7 5 10 17 15 14 8 10 14 13 30 41 45 41 36 46 53 63 69 70 67 59 65 69 68 76 77 74 74 74 72 71 71 71 73 70 70 69 65 64 66 69 71 75 83 89 92 93 93 94
18 19 19 17 15 14 15 16 17 18 18 18 18 18 19 19 21 22 23 24 23 23 16 6 5 6 8 12 17 19 19 21 26 29 25 22 19 12 8 5 7 13 14 12 6 12 17 16 24 32 40 38 33 40 48 64 73 68 65 60 67 74 73 80 84 80 76 75 73 71 69 71 71 69 70 65 59 60 63 69 70 73 81 86 88 89 91 94
14 16 18 18 17 15 13 13 14 15 16 16 16 17 18 19 21 22 23 23 23 23 16 6 5 7 11 16 19 21 20 21 26 27 25 23 21 18 13 8 6 8 9 8 7 14 22 25 29 30 33 34 32 32 42 67 74 59 61 69 74 79 80 87 90 82 76 73 71 70 70 71 67 67 72 64 61 62 59 63 68 71 77 79 78 81 91 93
9 13 15 16 16 16 15 13 12 13 14 15 15 16 17 19 20 21 23 22 22 23 19 11 8 8 13 19 21 24 23 24 27 25 24 25 23 20 17 13 10 8 8 7 8 13 25 30 30 32 33 32 30 27 38 65 75 60 58 72 80 85 89 93 91 83 78 72 70 73 71 68 64 66 71 65 63 63 57 60 67 69 72 73 67 73 89 88
6 9 12 15 15 15 15 13 12 12 13 14 14 15 17 19 20 21 22 22 21 23 22 19 14 11 15 19 19 21 23 25 26 23 23 24 25 23 19 17 13 9 9 8 8 11 21 28 30 35 33 31 29 28 42 61 70 64 62 75 84 88 92 93 91 87 82 75 73 74 73 73 67 65 68 65 66 66 62 63 69 71 72 75 67 68 85 89
6 6 9 12 14 14 14 13 12 12 12 12 13 15 17 19 20 22 22 22 22 23 24 24 19 15 16 18 17 18 19 22 23 19 19 21 24 25 21 19 17 12 7 6 8 8 14 26 32 35 32 29 26 30 48 56 59 65 71 80 84 87 92 91 91 89 86 82 77 75 80 81 71 64 66 67 68 68 69 71 73 75 77 84 78 70 81 91
5 5 7 9 12 13 13 12 11 11 11 12 13 16 18 20 21 22 21 22 24 25 24 24 23 19 17 16 16 16 16 18 18 14 14 19 23 25 21 16 17 14 8 5 6 5 13 26 31 32 30 24 30 48 59 57 64 76 79 82 84 87 92 91 92 92 89 86 81 78 82 83 74 66 63 68 71 69 76 81 79 79 81 85 85 75 74 82
5 5 6 7 11 11 11 11 10 11 11 13 15 17 20 21 21 21 21 22 23 25 23 22 23 21 18 16 15 15 16 15 15 15 14 17 20 22 19 12 12 11 6 3 4 6 15 28 29 28 27 21 40 70 72 68 78 82 77 79 84 84 90 92 92 92 87 84 84 80 79 81 76 68 64 68 73 71 76 83 83 83 84 84 84 78 71 78
5 6 6 6 9 10 11 10 9 11 11 14 17 20 21 21 22 21 21 20 22 24 21 21 22 20 19 16 14 14 15 14 16 20 17 15 15 18 18 11 7 5 4 3 3 7 17 28 28 26 25 19 34 65 78 79 81 80 75 78 81 79 87 94 93 93 89 88 88 81 80 81 74 71 72 69 73 76 75 80 83 83 84 84 84 79 73 80
6 5 6 6 7 9 10 9 9 11 13 16 18 21 21 20 21 21 22 21 21 22 18 20 21 19 20 17 15 16 17 17 17 18 14 13 13 16 20 15 7 2 2 2 2 10 22 28 27 25 22 13 25 56 78 81 77 78 75 74 75 73 81 89 91 94 90 89 92 89 90 85 73 74 78 72 74 79 76 78 80 80 82 83 84 81 79 80
5 5 5 5 6 8 8 8 10 12 15 17 19 21 21 21 20 20 25 24 21 20 16 19 20 18 19 17 17 18 18 17 15 14 12 14 17 17 20 19 13 4 1 3 3 9 19 23 24 22 16 17 42 68 75 74 73 77 75 70 69 70 78 82 86 93 89 88 94 95 96 90 77 76 79 77 77 76 74 76 77 78 80 80 82 80 80 78
5 5 5 5 6 7 8 8 10 14 17 18 20 21 20 20 19 18 23 25 22 18 16 20 20 17 18 17 17 16 16 16 14 15 15 17 18 18 19 20 18 10 4 7 8 10 15 20 20 16 15 32 63 74 65 67 70 71 72 71 72 73 76 78 81 88 85 87 95 94 95 95 85 76 78 81 79 74 72 74 75 75 76 77 79 77 78 80
5 4 5 4 5 6 7 8 12 15 18 20 20 21 20 20 19 17 20 24 22 17 18 21 19 17 16 15 17 16 16 17 15 16 17 17 18 18 18 18 19 17 12 11 13 16 19 21 16 13 26 48 65 66 60 65 68 68 66 67 76 78 71 72 79 84 83 88 97 96 94 96 91 81 78 80 80 75 71 73 73 72 74 73 74 75 76 82
4 4 5 4 5 5 6 9 13 16 18 21 21 20 20 19 18 17 19 22 20 18 20 21 20 18 14 14 16 16 17 17 15 16 16 16 17 17 17 18 19 18 17 15 15 17 16 18 16 16 38 59 64 60 53 52 54 60 66 66 75 80 71 70 76 81 84 86 92 96 94 91 91 88 80 78 79 74 70 71 71 69 71 70 70 72 74 78
4 4 4 4 4 4 7 10 13 17 19 21 20 20 20 18 18 18 19 19 19 21 22 21 22 19 14 14 15 16 17 16 15 15 15 15 16 17 17 17 17 17 17 17 16 16 14 17 18 17 38 62 68 56 43 42 41 45 56 57 61 71 73 71 72 79 84 86 89 95 96 88 87 90 81 76 78 72 68 69 68 67 67 69 68 68 71 73
4 4 4 4 4 4 7 11 14 18 20 21 20 20 19 18 18 18 18 18 19 21 20 19 21 19 16 14 15 17 16 15 14 13 13 14 16 17 16 14 16 15 14 16 16 17 16 17 20 18 29 51 66 59 41 39 42 43 49 48 49 59 69 74 73 76 82 88 94 94 93 89 87 90 81 74 75 70 67 67 67 65 63 66 65 65 69 69
3 4 5 5 4 4 9 12 16 19 19 21 21 20 21 21 21 20 19 18 18 19 18 19 20 19 18 16 16 16 16 14 13 13 12 14 16 16 15 13 14 13 13 16 15 16 17 18 22 20 21 31 52 62 51 43 47 49 47 47 56 63 69 77 76 79 82 88 95 90 88 89 89 90 81 73 72 68 66 66 66 64 63 64 62 63 65 64
4 3 5 7 5 5 10 13 16 19 19 21 22 21 25 27 26 24 22 18 17 18 19 19 20 19 17 16 15 15 16 14 12 13 12 14 16 15 16 14 13 13 13 15 14 14 16 19 20 18 17 19 28 40 42 41 39 37 37 42 59 71 74 77 77 80 83 86 91 88 89 92 89 90 85 75 69 66 64 64 65 64 63 62 61 62 63 64
4 4 5 8 6 4 9 13 15 18 18 20 22 22 25 26 25 26 25 22 18 17 18 18 18 17 15 14 13 13 15 14 12 13 12 14 16 15 16 14 12 13 12 14 15 14 17 18 15 13 16 18 18 20 21 25 24 27 40 41 48 68 77 79 81 82 82 87 91 90 93 94 88 89 89 79 67 63 64 63 63 64 63 62 61 61 62 66
4 3 4 8 8 5 8 12 14 17 17 19 21 23 24 24 23 25 26 25 22 18 17 18 16 13 14 12 11 12 15 15 14 12 13 15 16 15 15 13 14 14 11 12 14 17 19 15 12 12 16 17 17 17 15 18 20 26 40 37 43 69 73 70 82 86 83 85 86 88 94 96 93 93 91 84 74 69 69 67 66 65 63 60 60 60 61 63
5 3 4 8 9 5 7 11 14 17 17 18 20 22 23 22 23 24 25 27 28 22 15 15 13 10 11 10 10 13 14 14 14 11 13 15 16 15 14 14 16 14 13 12 12 15 15 12 12 13 16 14 12 15 15 15 18 26 38 37 45 70 73 69 81 85 82 81 79 85 97 98 96 97 94 89 83 77 74 71 69 68 63 60 59 58 59 59
8 4 4 7 10 6 7 12 14 16 16 17 18 20 22 20 21 24 26 29 28 20 11 11 12 8 9 10 10 12 12 13 13 11 12 13 15 15 15 16 15 15 16 14 12 13 12 12 12 11 13 11 11 13 12 13 14 20 34 39 44 63 75 77 80 77 77 81 78 81 95 99 95 96 95 92 87 78 73 70 68 68 65 60 59 58 57 57
12 5 3 7 10 6 7 11 14 15 15 15 17 19 20 19 20 23 28 29 20 12 10 11 11 8 8 10 10 11 12 13 13 12 12 13 14 14 16 17 16 17 18 15 14 14 14 13 11 12 12 11 13 11 12 18 14 16 35 48 52 65 76 78 77 73 73 79 81 85 94 98 97 95 92 92 88 75 71 68 65 69 67 59 57 57 56 56
18 7 3 7 9 6 7 10 12 14 14 14 16 19 18 17 19 22 28 27 16 11 11 9 9 9 8 9 10 11 12 13 13 13 12 13 15 14 15 16 17 17 18 17 16 14 14 13 12 13 11 12 14 11 16 19 11 25 52 61 61 68 74 74 73 71 70 72 80 87 94 97 97 94 89 90 89 78 72 68 65 70 68 59 56 55 55 55
24 12 4 7 10 7 6 7 9 11 12 12 15 18 17 17 20 24 28 24 15 12 10 9 9 8 8 8 10 11 11 12 13 13 14 14 15 15 14 15 16 16 17 18 16 15 15 13 12 12 12 15 11 9 19 19 22 49 68 63 63 67 70 70 68 69 71 69 72 79 89 96 95 93 91 91 92 88 78 69 65 68 69 62 56 53 54 53
26 17 6 6 9 8 6 5 6 7 9 11 14 17 16 17 21 27 29 21 14 12 10 9 9 8 9 8 9 11 10 11 12 13 15 15 15 15 14 15 15 15 17 17 15 15 15 13 13 12 11 12 10 14 20 19 38 66 67 61 65 65 65 69 68 69 75 74 69 72 83 94 95 94 95 95 96 92 79 68 62 64 69 66 57 53 53 52
25 21 11 5 8 9 6 4 4 6 9 11 15 16 16 21 26 31 31 21 14 13 10 9 8 8 10 8 9 10 9 11 13 14 15 15 16 15 15 15 15 15 16 17 16 15 15 17 17 12 11 19 26 35 35 33 50 63 61 63 65 63 65 70 72 72 77 76 68 70 79 88 93 95 96 94 92 87 78 74 67 62 68 68 60 55 52 50
23 23 13 6 8 9 6 6 5 6 9 11 14 15 18 27 29 29 28 19 14 12 9 9 9 9 10 10 10 10 11 13 13 14 14 14 14 14 15 15 15 16 16 17 16 14 15 17 17 17 27 40 47 52 50 50 56 56 58 60 58 63 67 69 76 76 77 76 70 73 79 85 93 92 90 88 84 83 82 82 75 63 64 68 62 56 52 49
19 22 14 7 8 8 7 8 8 10 12 13 14 17 24 33 30 24 22 16 12 10 9 11 11 11 12 11 12 12 12 13 13 14 15 14 14 15 16 16 17 17 17 18 15 16 20 19 23 37 49 51 49 54 60 58 54 53 55 50 50 68 70 67 78 77 72 73 74 75 75 81 85 74 71 82 84 84 83 81 74 63 63 67 64 57 52 49
15 20 13 6 8 10 6 7 13 16 15 14 17 22 29 32 27 26 24 16 11 10 10 12 12 13 14 12 12 13 13 13 14 15 16 16 16 16 16 17 18 16 16 20 16 17 23 22 30 47 55 52 44 48 60 61 54 49 49 42 43 61 69 70 80 78 69 68 73 75 73 78 76 60 56 70 81 82 77 76 71 62 63 65 62 58 52 49
14 17 11 6 11 11 5 9 17 19 16 16 21 26 29 29 28 31 30 20 14 11 9 12 13 14 14 14 13 13 14 14 15 16 16 16 16 17 17 17 18 15 15 19 18 18 21 19 23 29 35 46 48 44 49 54 53 46 39 37 38 45 55 61 67 67 66 69 76 78 74 73 72 68 64 62 71 79 76 76 73 63 61 60 60 59 53 50
13 15 8 7 13 9 6 13 19 18 16 19 26 31 34 35 31 30 27 18 15 14 12 13 15 15 14 15 16 14 14 15 16 18 17 17 17 18 17 15 17 16 15 19 20 21 22 18 17 16 18 31 43 47 47 49 54 49 37 39 42 39 43 52 57 61 67 71 75 77 72 68 66 68 69 64 67 74 74 79 79 70 65 63 65 64 55 50
13 13 7 10 15 8 9 17 18 18 20 23 28 30 33 35 29 24 21 16 16 18 16 13 13 15 15 16 17 16 15 15 16 18 18 19 19 19 18 16 16 17 16 19 20 21 22 19 16 18 19 20 26 38 45 46 52 51 43 42 43 38 40 52 60 63 65 63 66 70 67 65 62 58 64 68 67 67 69 75 81 79 74 68 69 67 57 51
12 10 6 11 15 9 13 20 19 20 22 22 24 29 33 31 24 24 25 22 20 17 14 14 14 16 18 17 16 16 15 15 16 17 18 20 19 18 19 17 16 18 17 17 19 20 20 18 17 21 25 25 25 34 40 41 42 47 47 42 38 39 39 46 58 64 62 56 58 65 65 66 67 64 70 74 68 66 68 68 73 79 78 70 69 69 60 50
12 11 9 12 14 11 16 22 22 23 22 24 35 42 38 29 24 26 26 23 21 16 14 15 14 16 19 18 16 15 15 15 16 19 19 20 20 18 18 16 15 18 19 18 19 20 20 19 18 20 24 26 31 40 46 41 34 37 44 40 40 52 52 48 56 61 61 58 54 58 64 64 62 63 71 73 66 65 68 67 68 70 71 68 67 68 62 53
12 14 18 18 14 13 19 22 23 24 21 26 40 43 34 29 29 27 25 24 21 16 14 13 13 16 19 18 16 16 16 15 17 21 21 21 20 18 17 16 14 16 19 20 18 21 24 22 18 18 21 21 25 38 47 43 34 32 38 39 42 59 64 58 57 52 54 61 55 53 57 51 49 59 68 69 66 65 67 68 68 64 65 66 65 68 68 60
13 17 22 22 16 14 19 20 23 28 25 26 36 37 29 25 24 21 20 22 20 15 13 12 13 15 18 19 16 16 18 18 18 19 21 21 19 17 16 16 15 15 18 20 19 23 26 24 22 20 20 22 24 28 32 33 31 27 33 39 41 49 54 54 54 44 42 53 56 55 50 39 48 69 75 73 70 65 63 63 63 62 65 69 66 66 68 64
14 16 21 23 21 17 18 22 28 34 33 31 33 34 28 22 21 20 19 20 21 16 11 11 14 15 18 18 16 16 19 20 19 19 19 19 17 16 15 16 17 16 17 18 17 21 25 26 28 23 18 23 25 24 25 26 28 29 36 46 45 41 40 44 52 45 37 43 49 51 43 37 55 74 75 74 69 62 61 59 58 61 67 70 67 63 64 63
16 17 20 20 21 20 22 29 37 37 32 29 26 24 25 24 25 23 18 19 21 17 11 11 15 17 18 17 16 20 21 20 20 19 17 17 16 16 16 17 19 17 17 18 16 23 31 31 31 27 23 24 24 25 27 26 32 39 47 55 50 41 36 39 47 46 41 43 47 49 44 45 63 75 72 72 71 67 66 61 58 62 66 68 66 63 62 60
20 21 19 15 17 23 28 34 40 37 30 27 25 22 22 22 22 21 19 18 18 15 10 10 13 15 16 16 16 19 20 20 20 19 18 18 17 17 17 19 21 18 17 16 17 27 36 36 34 30 28 27 24 28 31 27 33 41 48 58 57 54 54 52 51 48 43 43 49 50 45 47 65 75 72 73 77 78 76 69 65 68 68 68 68 65 62 60
24 23 21 20 21 26 31 33 35 34 31 29 26 23 22 21 20 20 19 17 16 13 9 10 12 11 13 16 18 19 20 20 20 19 20 20 18 17 18 21 22 20 20 20 17 21 30 38 38 30 27 29 28 30 32 33 38 41 48 61 64 66 68 64 62 57 45 44 50 46 38 46 65 73 71 73 77 83 87 79 72 73 73 72 71 68 65 63
24 22 24 27 30 30 30 31 30 30 33 34 30 27 26 24 22 20 19 19 18 15 11 10 10 9 13 19 21 23 23 21 21 21 21 20 20 18 17 20 23 28 37 36 22 19 33 44 42 32 24 26 30 32 33 38 43 43 49 62 67 68 64 56 53 47 43 49 54 46 40 49 66 72 72 75 78 85 93 88 79 79 80 78 77 74 70 65
28 30 33 33 34 33 32 38 39 35 36 38 35 32 29 26 25 24 21 18 16 14 11 9 10 12 16 20 22 23 24 24 24 25 23 21 20 18 18 19 21 31 49 44 26 30 46 48 48 48 36 27 34 41 41 42 43 43 48 59 68 69 61 52 44 43 58 64 53 55 66 66 69 74 78 82 82 86 93 94 91 88 86 85 84 82 80 75
35 44 52 46 38 36 39 45 47 44 41 39 38 35 31 29 30 29 22 16 14 14 10 9 11 12 16 21 23 22 25 29 28 25 24 25 25 20 19 21 18 24 41 37 25 35 45 39 44 53 44 34 40 47 47 47 47 47 50 56 67 70 62 60 62 66 79 69 47 63 87 80 73 77 81 86 88 87 91 95 97 94 88 86 87 88 87 82
42 52 61 55 47 45 43 42 48 52 46 42 43 39 33 34 35 33 27 22 20 15 10 11 12 11 14 21 22 24 30 33 31 30 30 31 31 22 16 19 19 19 27 25 25 37 39 31 37 44 38 36 40 42 46 54 57 57 59 62 68 69 62 66 76 78 79 68 60 77 90 83 82 84 83 87 89 88 92 95 97 96 91 88 89 90 91 87
53 59 60 56 51 51 48 47 55 56 46 47 52 44 37 38 36 33 30 28 26 18 11 13 14 11 13 21 29 35 37 31 29 36 39 34 32 26 18 19 19 19 20 19 27 39 34 31 40 41 35 36 38 40 48 57 58 58 65 70 71 69 64 66 71 73 73 72 73 81 85 86 89 86 85 90 91 91 94 94 94 97 96 92 88 87 90 89
52 55 55 52 47 52 57 55 56 52 44 51 54 43 41 41 35 35 33 30 31 26 16 13 15 17 17 23 32 31 30 32 30 33 38 34 31 33 28 21 20 21 22 22 29 34 28 33 48 45 35 35 37 40 46 51 54 54 56 67 73 70 68 70 71 71 74 77 76 75 78 83 85 84 88 94 94 95 96 95 95 95 97 97 92 91 92 91
42 45 53 53 49 56 63 59 57 49 39 46 51 44 45 42 36 38 36 29 30 28 20 16 17 23 24 25 28 20 18 29 28 22 27 26 23 26 25 22 22 22 25 28 30 30 27 34 48 44 35 36 39 43 46 46 50 48 42 53 71 72 67 68 72 72 75 82 84 79 76 81 84 86 90 92 92 94 96 97 96 94 96 98 96 95 96 94
40 44 57 61 55 57 61 58 57 48 38 45 52 48 45 42 38 40 36 32 30 24 22 23 19 22 25 24 23 16 11 17 17 15 20 18 16 19 19 20 21 22 30 32 31 37 38 37 44 42 33 33 40 48 53 49 44 43 43 54 73 81 76 74 76 76 78 82 80 75 77 86 89 86 86 89 91 93 96 97 96 95 96 98 97 96 97 97
Wind_Speed
7 6 6 6 6 7 7 7 8 9 9 9 10 11 12 13 13 14 15 15 16 16 16 16 14 11 9 8 8 6 3 2 4 6 5 2 1 3 4 7 10 10 11 12 11 11 10 11 10 10 9 5 1 1 1 1 2 3 1 1 2 1 1 2 3 3 3 6 8 10 11 12 10 8 11 12 12 13 11 10 8 7 10 14 16 22 20 17
7 7 6 5 5 6 6 6 7 8 8 9 9 9 10 11 12 14 15 16 16 16 17 16 14 11 9 8 6 4 5 8 10 10 8 4 2 2 4 7 10 10 10 10 9 10 10 12 12 11 9 4 2 1 1 2 1 0 1 1 1 0 1 1 3 4 3 7 9 9 11 11 11 13 12 9 9 12 12 11 11 14 14 16 20 21 17 17
9 8 7 7 7 6 7 7 7 7 8 8 8 8 9 10 11 13 14 16 16 17 16 15 13 11 9 7 5 6 10 13 13 12 9 7 4 2 5 6 10 11 10 9 7 8 9 11 13 11 9 4 1 1 1 2 2 1 1 1 1 1 1 1 3 4 3 9 11 9 9 9 11 13 11 9 10 9 10 11 13 16 17 20 22 18 17 17
9 9 9 8 8 8 8 7 7 8 8 8 8 8 9 10 11 12 13 15 16 17 16 14 12 10 9 6 6 8 12 11 9 9 8 8 7 4 5 7 10 12 11 9 7 8 9 10 12 10 7 3 1 1 2 3 2 2 2 1 2 1 2 1 3 5 6 11 12 10 10 9 10 10 11 14 10 5 8 11 14 20 23 23 22 19 18 16
9 9 9 9 8 8 8 8 8 8 8 9 9 9 10 10 11 12 13 14 15 16 15 13 11 9 8 6 6 6 6 5 6 7 8 8 8 6 5 7 10 11 10 9 7 9 10 11 11 8 5 1 1 2 2 4 4 2 2 3 3 2 2 0 4 6 10 12 12 12 10 10 11 9 14 16 5 3 11 13 14 22 26 25 24 20 17 16
9 9 9 9 9 8 8 8 8 8 8 9 9 9 10 11 11 12 13 14 15 15 14 12 10 8 7 6 6 5 4 3 5 7 9 9 8 7 6 6 8 9 9 8 8 11 12 12 11 7 3 1 2 2 2 5 6 3 1 1 3 2 2 2 7 8 12 14 12 12 10 11 11 9 14 11 2 2 14 15 16 22 25 25 24 21 18 16
9 9 9 9 9 9 8 8 8 8 8 9 9 9 10 11 11 12 14 14 14 15 14 13 11 8 6 6 6 9 11 8 7 7 8 9 8 7 6 5 5 7 8 8 8 11 13 13 10 6 3 1 1 2 3 4 7 5 1 2 3 4 2 3 7 7 10 13 12 12 12 12 10 9 12 5 2 6 15 15 17 22 23 24 23 20 18 16
10 9 9 9 9 9 9 9 8 8 8 8 8 9 10 11 12 13 14 15 14 14 14 14 12 9 6 6 5 9 11 8 6 6 7 7 7 7 5 4 4 5 8 9 8 11 13 12 9 7 3 1 1 3 3 2 6 6 2 2 3 4 4 5 6 6 9 12 13 12 10 8 7 10 11 4 3 12 16 16 18 22 22 22 21 20 17 15
11 10 9 9 9 10 10 9 9 8 8 8 8 9 10 12 13 14 14 14 13 13 14 13 11 8 5 5 4 5 6 6 4 4 5 5 6 7 6 3 2 4 7 10 9 11 12 11 10 7 2 1 2 5 3 3 2 3 2 3 4 4 4 6 7 7 8 11 11 11 7 5 9 12 7 4 9 15 16 18 20 22 22 20 19 18 16 14
12 10 9 9 10 10 10 10 9 8 8 8 9 9 11 13 14 14 13 12 12 13 15 13 11 8 4 5 4 3 3 3 3 3 4 4 5 6 6 4 2 2 5 10 11 10 12 12 10 6 1 1 3 4 1 2 1 5 6 6 6 5 5 6 8 7 7 7 6 9 6 4 9 9 4 7 15 17 17 19 21 22 21 19 18 17 15 13
11 10 9 9 10 10 10 10 9 9 9 9 10 10 12 13 14 13 11 10 10 13 16 14 11 8 5 5 4 3 2 2 2 4 3 2 4 5 6 5 3 3 5 9 11 11 12 12 8 5 2 1 1 2 2 2 4 9 9 7 6 6 6 6 7 6 6 4 4 9 7 3 6 5 4 13 19 19 19 19 20 20 19 19 18 17 15 14
11 10 9 9 9 10 10 10 9 8 9 9 10 11 12 13 13 11 10 10 10 13 16 13 10 8 6 4 4 3 3 2 3 5 3 1 3 4 5 6 4 5 7 8 11 12 13 13 8 3 1 1 0 0 3 4 6 7 5 3 4 4 5 5 5 4 4 3 3 6 5 2 6 3 5 18 21 20 20 19 19 19 18 18 17 17 16 14
11 11 10 10 9 10 10 9 8 8 9 9 11 12 13 13 12 11 10 10 11 15 15 11 8 7 6 5 4 3 4 6 6 5 2 2 3 4 4 6 6 7 11 11 11 13 14 13 7 1 2 2 0 1 5 6 4 4 2 1 2 2 2 3 4 5 4 1 1 2 2 5 8 3 8 21 23 21 20 18 19 18 17 17 17 17 16 16
11 11 11 10 9 10 9 8 7 7 8 10 11 13 13 12 11 10 10 8 10 15 13 8 7 6 5 4 3 5 6 8 7 5 4 4 4 4 5 7 7 7 11 12 12 13 12 9 3 2 4 2 3 5 7 4 1 2 1 1 0 1 1 2 2 6 2 4 3 2 3 5 8 6 12 22 24 23 20 18 18 17 17 17 17 17 16 16
10 11 11 10 10 9 8 7 6 7 8 10 12 13 13 12 11 10 9 7 10 16 10 6 7 6 3 4 4 5 7 8 7 6 4 4 4 5 6 7 8 8 10 12 12 12 10 5 1 2 2 3 7 6 4 2 1 1 1 1 1 1 1 0 3 6 4 5 4 4 3 2 6 8 14 20 23 23 20 19 18 17 17 17 17 17 16 15
10 11 11 10 10 8 7 5 5 6 8 11 13 13 13 11 11 11 8 7 12 15 6 4 8 6 3 4 3 4 8 8 4 3 2 3 3 4 5 6 7 8 9 11 12 11 8 4 1 1 1 5 6 4 2 2 1 0 2 1 0 1 1 1 3 5 6 4 3 6 3 1 3 9 15 19 21 20 18 18 19 18 17 17 18 17 15 14
10 11 11 11 10 8 6 3 4 6 8 12 13 14 14 12 11 9 6 9 13 11 3 2 8 4 4 4 3 5 9 6 2 1 2 1 2 3 4 5 7 7 8 9 11 9 6 3 1 1 2 2 3 3 2 2 1 1 1 1 1 1 1 1 1 4 7 8 6 7 5 2 1 9 15 19 21 20 17 18 19 18 17 17 17 16 15 15
10 11 11 11 9 8 5 2 3 5 8 11 12 14 13 12 9 3 5 12 10 5 2 3 8 2 3 3 3 6 9 5 2 1 2 2 1 3 4 5 7 8 8 8 8 6 4 3 1 1 1 2 3 4 2 0 1 1 0 1 1 2 2 2 1 3 7 8 8 7 7 4 2 8 13 18 21 20 18 18 18 18 18 18 17 15 15 17
10 11 11 11 9 7 4 1 2 4 8 11 13 13 9 9 4 1 10 13 5 3 2 4 7 1 1 5 5 6 7 4 2 1 2 2 1 3 6 6 6 7 6 4 4 3 2 2 1 1 1 1 2 2 1 3 3 3 2 1 2 2 1 1 1 2 5 7 7 8 8 5 5 10 12 17 20 19 17 17 17 17 17 18 18 15 15 18
10 10 11 11 9 6 2 1 2 4 7 10 13 11 9 11 4 2 16 12 2 6 6 5 6 4 5 7 6 6 4 2 2 1 1 4 4 4 7 6 5 5 3 2 2 3 1 2 2 1 1 0 1 2 2 2 3 3 2 2 3 2 1 0 0 1 3 4 5 8 8 5 7 9 9 15 19 17 17 17 16 17 16 18 18 16 17 19
10 10 10 10 9 5 1 1 1 2 6 9 11 10 11 12 5 6 16 9 4 11 8 6 6 6 7 6 5 3 1 2 3 2 3 6 5 4 4 3 3 3 2 0 2 3 1 2 1 1 2 3 3 4 5 6 7 7 5 3 2 1 0 1 0 2 2 2 2 6 6 6 8 8 6 12 17 17 19 19 18 18 18 18 18 19 20 18
10 10 10 9 8 4 1 2 1 1 5 7 9 10 11 11 8 9 11 6 9 11 6 6 6 6 7 5 4 1 2 1 2 4 5 7 6 4 3 2 2 2 1 0 2 2 1 2 1 2 4 4 3 3 4 4 6 5 3 2 2 0 1 1 0 2 3 1 1 5 6 5 7 7 5 9 15 18 19 19 19 20 20 19 19 20 21 17
10 10 9 9 8 4 3 3 2 1 3 5 7 9 10 10 12 13 8 6 9 8 5 6 7 7 6 5 5 3 2 2 3 5 7 8 7 5 5 4 2 2 2 2 3 2 1 2 1 3 5 5 3 3 4 4 4 3 2 3 2 1 2 1 1 3 3 2 0 5 6 3 4 5 3 4 8 11 13 14 16 18 21 22 21 22 22 20
11 10 9 8 8 5 4 5 4 3 2 4 4 6 8 10 13 13 7 4 5 5 5 7 8 7 5 4 3 3 1 2 2 5 9 9 7 6 4 4 3 3 2 2 3 2 2 3 4 5 5 5 2 3 5 4 4 4 4 5 3 3 3 1 2 3 3 3 1 3 4 2 4 6 4 4 3 5 8 11 13 15 20 24 22 22 24 23
12 11 9 8 7 5 4 6 6 5 4 4 4 5 7 10 12 11 7 2 2 4 5 4 6 5 3 3 2 2 1 1 1 4 10 10 8 5 2 3 2 2 3 4 4 2 3 4 7 6 4 5 4 4 6 5 5 4 4 6 5 4 5 4 5 3 2 2 3 4 3 2 4 7 7 6 6 8 9 11 14 14 17 22 22 22 25 25
13 12 10 8 6 5 4 5 6 7 5 5 5 5 7 9 11 10 5 1 1 3 4 3 3 3 2 3 0 1 0 1 2 3 10 10 8 5 2 2 0 1 4 4 3 2 2 3 5 5 5 5 4 5 5 5 5 4 2 4 5 6 7 7 6 3 1 1 2 4 3 1 1 6 8 8 11 14 12 12 15 14 15 21 22 23 26 27
14 13 10 8 7 4 3 5 8 9 6 5 6 6 7 9 10 7 4 0 1 2 3 3 2 1 2 2 1 1 0 2 2 5 11 11 8 5 3 1 0 1 3 3 1 1 3 5 4 4 4 5 5 5 6 9 6 2 1 4 7 8 7 7 5 2 1 1 2 4 2 1 2 5 7 9 12 15 14 13 13 13 16 20 22 24 27 29
14 14 11 8 7 4 4 6 8 9 7 6 7 6 7 10 9 5 1 1 1 2 2 2 2 2 4 2 3 2 1 1 0 4 9 11 9 5 3 3 2 2 3 3 2 1 3 5 6 6 4 4 5 4 7 12 5 1 4 6 7 7 6 5 3 1 0 2 3 5 4 2 3 2 5 9 11 13 16 16 15 15 16 19 22 24 27 30
14 14 12 9 7 6 4 5 7 7 7 7 7 6 8 9 5 1 0 1 2 2 1 3 3 3 3 2 2 2 2 2 0 2 7 9 9 5 2 2 3 2 3 3 5 3 2 3 4 6 5 4 3 0 6 11 5 6 10 11 9 7 5 3 1 0 1 2 4 5 8 4 3 3 6 9 10 12 13 15 17 18 17 19 22 24 27 30
14 15 13 10 7 5 4 5 6 6 7 6 5 6 7 5 1 1 1 0 1 1 2 4 4 3 3 1 0 1 1 1 2 2 5 4 7 6 2 1 2 2 1 2 6 6 3 2 2 3 3 2 3 3 4 9 11 13 13 11 9 6 4 3 1 1 1 3 3 2 8 6 2 3 7 8 8 11 11 10 14 17 16 18 23 26 28 31
13 14 13 10 6 5 3 3 5 7 7 6 4 5 3 1 1 1 0 0 0 2 2 3 3 3 3 1 1 2 1 1 3 1 3 1 2 3 1 2 2 1 1 1 3 5 1 2 2 2 2 4 6 6 5 11 15 11 7 7 6 3 2 1 1 0 2 2 2 2 5 7 4 3 6 8 6 10 13 10 12 17 18 19 23 27 29 32
12 13 13 10 6 4 3 4 6 7 7 5 3 2 1 1 1 1 0 1 1 1 2 1 2 3 2 1 2 2 1 1 3 2 1 1 0 1 0 2 1 1 1 1 1 1 1 1 0 1 4 7 7 7 7 8 8 6 5 7 4 1 1 2 0 2 3 2 2 2 2 4 5 5 7 10 8 10 16 16 19 23 22 21 25 29 31 32
12 12 11 8 5 3 4 6 8 8 6 4 2 1 2 1 1 1 1 1 1 1 1 1 1 1 2 0 3 2 1 1 2 2 2 1 1 2 0 1 1 2 1 1 2 2 1 1 1 2 4 5 4 5 6 5 7 7 7 6 5 3 3 3 1 2 3 2 0 1 2 3 4 4 7 12 13 15 21 24 28 28 26 26 28 31 33 33
11 11 9 6 3 3 5 8 9 8 5 4 2 2 1 1 1 1 1 1 1 1 1 1 2 1 0 1 2 2 0 2 2 2 2 1 1 1 1 0 1 1 0 1 1 2 0 1 2 1 2 4 5 2 2 4 7 6 3 2 4 4 2 2 2 2 2 1 1 3 3 3 2 1 3 8 14 19 23 25 28 27 28 32 31 30 32 33
10 9 7 3 2 3 6 10 9 7 5 4 2 1 2 2 1 1 1 1 1 2 1 1 1 2 2 1 2 1 1 2 2 2 2 1 0 1 2 2 1 0 1 1 1 0 1 1 1 3 1 4 5 2 3 4 5 2 1 2 3 1 1 1 1 1 0 1 2 3 3 3 2 1 2 4 9 15 19 21 25 23 22 26 27 27 30 33
9 7 4 2 2 4 8 10 8 6 6 4 2 1 2 1 1 2 1 0 1 2 3 1 1 1 0 1 1 2 2 3 2 1 1 1 1 1 2 2 1 0 1 1 0 1 1 2 1 3 1 2 5 5 6 4 3 2 2 3 1 0 1 0 1 1 1 3 2 3 3 2 1 3 4 5 6 11 14 17 22 23 18 19 22 26 31 34
7 4 3 4 5 7 11 10 8 6 6 4 2 1 1 1 2 3 2 1 0 1 1 0 0 0 1 0 0 1 1 1 1 0 1 1 1 0 2 2 1 1 2 2 1 1 1 1 2 3 3 4 2 5 7 2 1 3 3 2 2 2 0 1 1 1 2 4 2 2 5 3 1 2 3 6 9 11 13 15 19 22 21 19 20 25 32 36
7 2 4 7 8 10 12 10 7 6 4 3 1 1 2 1 3 3 2 1 1 0 1 1 0 0 1 1 1 2 2 0 0 1 1 0 0 1 2 2 1 1 3 2 1 1 1 1 1 1 3 6 2 5 6 4 3 1 3 2 0 2 2 1 1 2 2 4 3 2 3 3 4 3 2 6 11 11 12 14 16 20 24 22 19 23 30 34
6 1 2 6 10 13 13 10 7 4 3 1 1 1 1 2 3 5 4 1 1 2 1 2 1 1 1 1 1 1 1 0 1 1 1 0 0 2 1 1 1 3 5 2 1 1 1 2 1 2 1 1 2 1 2 3 3 3 4 2 3 1 2 1 0 2 3 4 4 2 2 2 3 1 1 5 8 10 12 13 14 20 25 23 20 20 24 31
5 1 1 5 12 14 13 10 6 3 1 1 1 1 0 2 3 5 6 4 3 2 1 2 1 1 2 2 1 1 0 1 2 1 1 1 1 2 2 1 2 3 4 3 1 0 1 1 1 0 1 1 2 3 2 1 1 2 3 1 1 1 2 2 1 3 4 4 4 4 5 2 2 2 4 6 6 8 12 12 13 18 22 23 24 22 23 29
2 2 2 6 12 14 14 9 4 1 1 1 1 1 1 1 2 4 5 6 6 5 3 2 2 1 2 1 2 2 1 1 1 1 1 2 1 1 1 1 1 2 2 1 2 1 1 1 1 2 1 3 4 3 2 1 1 1 1 1 1 2 2 2 2 3 4 5 4 5 6 3 3 3 5 5 5 6 10 12 12 14 19 24 26 26 26 29
1 1 2 6 10 14 12 5 1 0 1 1 1 2 2 2 2 3 3 4 6 5 2 2 1 1 2 1 1 2 1 1 1 0 1 1 1 2 1 3 3 2 1 1 1 1 0 0 1 2 1 2 2 3 1 1 4 6 5 2 0 2 3 3 2 2 4 4 2 3 5 2 3 5 5 4 3 0 5 8 9 10 13 19 22 24 28 30
5 1 2 3 7 13 9 2 0 1 1 2 2 3 4 2 2 2 1 2 4 3 2 2 2 3 2 2 2 3 2 1 1 1 0 1 2 3 4 5 3 1 1 1 0 0 1 0 1 1 1 1 1 3 5 5 4 5 5 3 1 1 3 3 1 1 2 3 2 2 3 0 4 6 6 5 7 7 4 2 2 3 5 9 15 20 24 28
8 2 1 1 6 13 7 1 2 2 2 2 1 3 4 3 3 3 2 2 3 2 2 2 3 3 1 1 2 2 2 2 1 1 1 1 2 2 4 4 1 2 1 0 1 2 1 0 1 1 1 2 4 4 5 5 3 2 3 3 2 2 3 4 1 1 3 2 1 4 3 1 4 6 7 7 8 9 7 5 4 2 2 4 9 15 21 25
7 1 1 2 6 11 4 1 2 1 2 3 1 2 3 3 4 5 4 4 4 3 2 1 2 4 2 1 2 2 1 1 1 1 1 2 1 2 3 2 1 1 0 0 3 3 1 1 0 2 3 4 5 4 3 4 3 2 2 3 3 4 2 2 1 3 4 2 2 3 2 3 4 7 9 8 7 7 6 7 8 6 4 5 7 12 17 21
5 0 1 3 4 6 1 2 1 0 2 2 1 2 2 2 3 4 4 3 3 4 3 1 2 3 2 2 2 2 1 1 0 2 3 3 2 2 3 3 1 2 2 3 6 4 1 1 1 3 4 4 3 1 1 2 3 3 3 3 4 4 3 1 1 2 1 3 1 1 3 4 3 7 9 8 7 5 4 5 7 6 5 6 6 8 13 16
4 1 1 2 1 2 1 4 3 2 1 1 1 2 2 2 1 2 2 2 2 2 3 1 2 3 3 4 3 2 1 1 1 3 3 2 1 1 3 4 2 1 2 4 5 3 1 2 2 2 3 3 2 3 4 2 1 3 3 3 5 3 3 4 2 1 2 3 2 3 5 6 3 7 8 7 7 4 4 5 5 5 6 7 6 6 8 11
3 1 1 2 1 1 1 2 5 3 1 1 1 1 2 2 1 1 2 2 3 2 3 1 3 4 5 5 4 3 3 1 1 2 2 1 1 0 1 2 3 3 2 3 2 1 2 2 2 1 2 2 2 4 4 3 2 1 1 3 4 3 3 5 3 1 1 3 3 5 6 5 3 6 7 6 5 5 5 5 3 4 6 8 7 6 7 8
3 1 1 2 1 2 3 5 5 3 2 1 1 2 2 2 2 1 1 2 3 1 3 3 5 5 5 4 3 3 4 3 3 3 2 2 1 1 1 1 1 3 2 2 2 2 1 2 2 1 2 2 2 3 2 1 2 1 1 2 2 4 5 4 3 2 1 2 3 4 5 3 3 5 6 6 5 4 4 4 4 4 3 6 7 7 7 7
2 1 2 2 2 3 4 4 3 2 1 1 2 2 2 3 2 0 1 3 2 0 2 3 4 2 4 5 4 4 6 6 4 4 5 4 2 2 1 1 2 1 2 1 1 1 1 1 1 1 2 2 1 2 1 0 2 3 2 2 1 4 5 4 2 1 1 2 2 3 3 2 3 5 7 8 7 6 6 6 6 5 3 2 4 7 7 6
3 3 3 2 2 1 2 2 1 1 1 1 2 1 1 3 1 2 3 6 6 4 1 1 3 1 2 3 5 6 9 11 6 5 10 9 4 4 3 2 4 2 2 1 1 1 0 0 1 2 3 2 0 2 3 1 2 5 5 3 2 2 2 3 3 2 2 1 1 3 3 1 2 3 7 8 9 9 10 10 9 7 5 3 1 2 4 5
3 3 1 1 1 1 1 1 1 1 1 0 0 1 1 2 1 3 3 4 7 7 2 2 2 3 2 4 9 12 14 15 8 4 10 9 5 6 6 5 7 3 1 1 1 1 1 2 2 2 3 2 1 3 3 2 2 5 4 2 1 3 2 3 4 3 4 3 2 3 1 2 3 1 5 6 6 7 7 7 6 5 3 2 2 1 3 4
Wind_Direction
35 35 34 35 33 30 29 25 22 23 22 21 21 18 15 13 13 12 10 6 1 356 354 355 356 357 356 352 347 341 343 27 69 72 64 63 180 213 202 192 187 179 173 174 183 191 185 173 174 179 173 163 121 55 286 264 338 352 324 36 77 115 137 184 176 137 146 155 150 162 161 142 138 128 119 119 112 117 111 101 103 91 122 146 152 153 152 152
19 15 11 8 8 8 9 8 8 10 12 14 15 15 13 10 9 7 5 3 359 355 354 354 354 358 3 1 360 12 68 90 90 78 67 72 98 163 191 191 185 175 167 170 176 185 186 174 174 178 164 141 92 66 309 225 225 12 345 19 75 108 86 144 146 132 161 158 147 159 160 150 142 138 140 131 125 130 114 106 109 107 120 139 148 151 150 152
15 10 3 355 351 347 348 349 351 356 0 2 4 7 7 7 7 5 4 1 358 357 356 354 353 1 11 13 29 73 100 100 87 73 63 62 67 124 178 186 182 175 168 171 173 175 183 179 175 172 158 137 102 143 211 203 210 199 235 328 80 312 282 208 174 172 169 153 148 155 156 148 142 144 149 137 138 149 139 137 134 129 135 143 147 152 152 154
12 9 5 359 352 346 343 342 341 345 349 352 353 357 360 3 5 5 5 2 359 358 357 355 356 10 22 34 68 98 112 105 76 63 58 55 57 95 159 171 176 182 185 187 181 167 170 176 172 168 165 145 108 166 223 206 198 182 218 298 44 350 275 206 199 188 156 154 148 147 149 143 146 151 148 141 141 168 173 163 152 149 149 149 152 155 157 157
9 6 4 2 358 353 347 344 340 339 343 345 345 350 355 359 2 4 4 3 1 360 0 1 5 20 32 56 82 97 122 113 66 62 62 59 59 73 125 156 171 186 197 200 185 162 159 168 164 162 174 158 145 198 229 197 195 199 230 296 350 316 282 254 221 188 153 152 142 146 153 147 148 153 156 156 152 188 181 174 160 156 155 155 157 157 160 160
4 2 2 1 0 357 352 347 342 339 339 340 341 346 351 355 359 1 1 2 3 4 7 13 18 27 45 68 75 70 83 95 80 74 69 64 61 67 92 134 163 180 194 198 180 161 154 160 161 151 158 193 210 242 259 188 202 232 245 329 0 338 308 210 207 185 155 152 147 152 152 146 149 153 166 168 343 204 174 168 161 161 160 159 160 159 161 163
0 359 358 358 358 358 355 351 346 342 338 337 339 343 348 352 355 357 360 2 6 9 17 26 27 29 51 70 70 74 77 82 86 77 68 62 58 67 85 110 148 177 189 189 178 169 159 158 162 152 160 227 223 267 292 194 204 237 315 54 46 37 39 161 184 173 155 152 148 149 147 151 155 155 169 179 349 171 167 164 164 163 163 164 162 162 164 165
0 358 355 354 355 355 354 353 350 344 341 339 339 341 346 349 352 357 359 1 7 13 20 28 30 29 44 59 67 80 79 78 79 69 63 55 51 59 73 101 132 173 190 190 184 179 168 162 165 166 184 274 321 306 300 200 201 225 263 61 58 47 69 120 140 136 138 143 142 141 137 153 166 159 164 162 133 160 163 163 165 163 164 167 165 164 166 168
2 360 354 351 352 353 354 354 352 347 345 342 341 344 347 349 352 356 359 2 9 14 16 22 27 26 32 36 48 85 86 82 78 64 58 51 47 50 51 72 127 162 184 186 181 180 174 170 174 180 204 27 328 316 276 227 211 195 166 80 71 56 71 105 110 107 119 130 138 132 112 126 157 155 152 146 155 162 162 159 162 165 165 168 170 168 168 171
3 2 355 349 349 350 352 354 353 350 347 344 344 347 349 350 351 353 357 2 9 12 11 14 20 23 20 14 27 80 91 92 89 58 51 53 48 45 46 58 122 152 177 180 177 177 173 170 176 192 214 24 329 330 275 227 90 128 127 91 74 66 69 97 101 93 101 117 135 131 109 103 150 162 165 162 166 164 156 154 161 165 167 171 175 175 175 176
4 3 355 349 348 349 351 353 353 350 347 346 348 349 350 349 350 351 354 358 3 5 6 12 17 19 10 359 31 76 63 83 68 25 17 51 55 41 43 60 114 140 155 172 170 170 170 165 164 178 184 0 329 15 79 143 115 128 125 92 72 73 69 73 92 88 87 95 103 120 110 91 159 192 184 162 166 166 158 156 163 165 168 174 178 181 185 185
3 359 355 349 347 347 350 352 353 350 346 347 349 349 348 348 351 352 348 352 357 356 0 13 20 19 16 23 62 64 36 30 352 353 358 116 66 41 48 67 103 133 134 151 164 168 169 164 158 152 86 23 258 67 108 124 123 134 133 90 82 87 72 55 74 64 57 94 76 102 111 168 189 200 163 164 165 165 162 160 165 167 170 176 181 188 191 193
0 357 354 349 346 346 349 354 353 349 346 346 348 346 344 346 351 351 346 348 354 354 359 15 24 19 28 55 63 18 3 5 357 6 71 126 76 53 63 70 83 130 136 139 161 171 167 163 157 104 345 354 34 114 119 118 126 137 129 118 114 107 90 43 64 58 39 172 9 41 180 199 189 168 161 168 166 163 162 163 168 170 172 177 183 191 196 200
359 356 353 349 347 345 349 354 354 349 343 344 346 343 341 342 346 348 345 345 350 353 360 22 31 26 45 69 39 17 22 23 39 75 102 101 82 76 79 77 78 116 137 134 149 166 168 168 170 339 328 0 125 135 126 116 113 128 141 160 35 324 118 37 99 102 82 254 277 308 243 198 177 164 166 169 168 167 164 166 173 173 175 180 185 194 200 205
360 355 352 350 347 346 350 355 357 346 338 344 347 341 337 337 339 342 341 337 340 348 3 46 33 20 60 78 33 36 41 41 69 95 98 92 83 76 77 88 90 100 125 127 134 151 160 167 208 334 10 114 147 154 137 126 90 83 234 187 29 302 173 81 150 159 197 231 239 239 237 181 168 166 167 171 172 171 167 168 174 177 180 183 187 196 202 206
360 354 352 351 349 348 351 356 356 341 338 347 345 338 334 330 330 332 332 326 329 342 7 70 20 16 96 79 53 50 28 31 75 105 95 91 77 69 65 80 94 100 114 117 123 138 149 157 206 315 109 141 162 168 147 162 135 100 277 304 72 215 257 187 154 192 199 167 219 244 239 93 156 165 167 174 175 173 171 169 175 180 182 186 190 196 200 203
358 353 352 350 350 351 353 359 348 342 348 349 342 335 331 325 325 326 329 329 328 340 24 54 6 23 111 68 49 26 14 23 112 150 150 126 55 51 46 66 93 110 117 117 121 132 147 164 191 167 138 136 166 192 188 203 225 171 230 302 227 236 275 262 141 188 186 173 204 234 248 304 135 159 167 176 178 176 174 172 177 182 182 189 192 195 199 204
356 352 350 349 351 352 357 355 335 353 359 350 341 335 329 322 324 323 343 339 336 350 62 21 2 40 113 25 0 1 5 28 108 185 206 220 14 53 63 80 101 115 122 120 124 143 159 149 135 141 133 120 169 210 216 342 354 81 116 315 270 232 233 278 311 167 179 192 199 203 232 264 135 156 170 176 179 180 180 177 178 183 185 189 193 196 199 206
354 351 349 348 350 353 4 340 333 9 3 352 346 344 343 342 338 111 353 349 3 21 4 347 351 17 336 339 339 345 353 21 76 203 217 201 170 86 89 100 112 123 137 136 120 136 157 144 140 141 151 163 196 240 16 39 17 36 44 325 311 290 235 288 322 162 186 206 200 197 215 224 165 169 176 177 180 183 182 177 178 186 188 190 195 197 200 208
351 349 347 347 346 352 10 315 334 15 5 359 357 4 21 14 27 358 347 352 33 351 334 326 326 287 302 326 335 339 347 27 104 138 194 173 154 110 98 99 113 122 133 158 123 104 142 201 201 79 34 281 220 260 295 324 326 340 330 301 296 299 308 12 23 163 203 224 210 198 205 203 176 177 180 176 179 184 184 179 180 186 188 193 196 197 204 211
347 347 346 344 342 346 348 285 317 13 5 6 10 29 40 22 22 340 341 344 339 341 338 333 322 303 322 338 342 350 80 92 121 148 179 164 157 143 115 95 118 115 67 46 106 90 161 226 194 122 214 214 203 222 248 272 286 296 302 300 282 270 327 357 300 173 190 247 224 187 198 203 181 177 180 175 179 187 187 184 185 186 190 195 197 200 207 210
344 344 344 341 337 333 264 261 264 344 0 8 18 38 44 25 13 353 342 315 317 339 353 345 337 338 351 5 7 41 143 111 131 161 173 171 180 176 135 114 119 114 73 153 146 126 221 250 260 224 201 191 200 206 211 244 274 290 301 286 294 224 133 70 128 158 179 228 216 180 197 207 178 171 175 182 189 193 191 189 189 186 190 196 198 203 207 206
340 340 343 340 331 316 242 239 236 245 337 359 16 31 32 17 4 357 348 299 309 336 359 347 343 351 8 28 28 42 154 169 156 170 176 180 185 168 148 137 112 119 133 171 187 186 207 182 156 178 169 167 192 208 206 224 249 257 258 276 304 159 203 275 135 145 179 195 277 197 197 199 168 159 156 193 197 193 189 189 191 189 193 198 201 205 208 208
338 338 342 340 326 305 239 222 226 228 279 328 351 13 10 3 358 354 347 297 294 326 344 350 349 350 7 19 20 30 116 183 186 182 182 184 176 163 160 144 134 157 158 146 155 186 243 193 150 145 166 191 210 205 212 237 254 245 232 248 261 193 205 293 130 147 183 187 182 187 188 201 192 183 177 184 202 199 187 186 192 195 198 202 203 207 213 215
336 336 341 341 327 304 243 214 221 230 249 295 312 335 345 350 352 348 345 310 261 316 333 356 0 357 5 3 21 42 23 203 257 190 187 192 183 169 167 167 168 161 151 145 141 184 258 205 172 174 198 213 229 231 218 231 262 264 223 226 236 193 162 135 148 166 215 214 182 183 219 235 187 202 198 175 193 208 196 193 196 193 198 205 206 209 214 219
334 333 339 341 330 305 249 219 218 226 244 273 291 313 330 340 346 346 349 32 187 337 336 335 355 9 355 339 334 156 90 31 350 192 186 194 193 182 168 162 205 94 143 155 166 223 242 163 163 189 204 202 224 242 212 204 242 269 242 197 176 161 151 148 167 193 273 304 172 196 239 317 163 225 209 177 194 204 200 204 202 191 193 203 207 209 213 218
334 332 336 339 333 309 253 235 222 222 236 260 276 299 322 333 341 340 338 90 126 348 325 305 318 340 325 315 215 201 79 31 16 178 183 191 193 196 213 186 54 112 147 169 217 196 180 167 160 176 189 196 220 236 201 192 218 261 57 134 146 150 156 160 174 208 312 356 202 199 206 328 282 238 200 180 200 207 204 210 207 197 197 201 207 210 213 218
333 329 333 336 332 316 263 239 228 224 227 244 268 287 315 329 331 325 317 110 17 324 298 296 299 297 302 278 217 223 265 347 39 172 187 196 192 193 242 223 197 175 160 205 254 105 168 190 184 179 186 203 220 239 186 183 201 31 98 114 124 135 146 160 181 190 10 304 245 191 163 220 257 219 171 179 203 211 206 210 211 205 202 202 206 210 213 218
331 327 330 330 326 317 273 236 227 220 220 235 258 284 313 327 328 315 106 112 339 326 260 292 307 293 300 293 229 238 240 240 353 165 187 198 200 204 249 206 186 189 177 225 257 263 227 220 198 185 198 217 208 203 187 186 168 113 120 106 104 117 115 115 161 135 83 288 270 190 169 200 265 197 173 182 205 215 207 208 212 209 204 204 207 210 213 216
327 323 324 325 321 309 271 237 223 208 210 226 249 290 315 326 311 141 85 106 341 307 259 288 308 316 328 5 106 334 242 227 30 139 166 184 208 214 251 227 173 189 207 236 255 263 257 203 209 201 208 202 105 81 183 166 133 128 124 108 106 109 96 90 74 11 288 264 294 193 176 191 275 217 191 194 200 201 200 203 208 210 207 204 209 212 214 216
322 317 318 318 316 300 267 234 207 196 203 219 250 290 308 355 104 125 79 79 310 298 302 312 324 345 358 60 74 19 45 48 22 119 162 139 208 198 220 233 176 191 242 220 248 266 279 143 198 215 157 138 111 87 115 135 137 141 130 128 130 99 100 133 104 152 255 255 4 44 176 190 232 233 208 219 206 184 193 195 196 209 209 203 209 213 214 217
319 311 311 309 305 286 246 210 190 185 194 211 244 273 203 176 228 194 300 345 336 325 356 345 347 359 342 8 33 9 32 51 21 27 83 49 17 94 187 242 216 230 253 25 306 313 66 93 101 111 142 151 131 104 114 139 156 168 147 155 169 90 183 231 224 225 248 257 27 41 178 202 241 252 210 212 217 195 196 192 191 204 208 202 207 212 215 216
317 307 306 299 288 265 226 197 184 178 179 194 208 170 127 167 203 180 297 345 19 351 358 317 328 342 275 353 29 347 344 45 358 15 47 23 29 74 146 245 255 266 297 30 335 31 93 143 103 122 156 178 171 133 146 174 186 186 169 170 188 172 203 235 197 246 269 253 113 127 189 241 259 260 210 200 204 206 205 198 195 200 203 204 208 211 214 214
319 307 304 288 269 252 211 182 173 171 171 173 160 132 135 183 180 171 257 266 297 319 11 315 312 337 90 67 14 322 91 74 19 13 42 21 13 51 37 126 176 260 279 167 352 26 343 119 102 132 164 185 215 206 164 172 179 188 181 190 200 179 216 251 200 235 268 237 149 151 194 244 223 284 231 201 193 201 209 207 203 204 204 206 209 209 210 211
322 307 301 266 246 229 184 170 166 166 170 161 126 118 184 208 217 188 219 256 289 302 313 344 352 11 33 43 3 358 30 45 43 32 35 41 334 14 2 351 27 213 232 241 50 353 287 59 59 304 259 191 212 183 130 153 156 154 336 241 226 213 249 274 198 221 224 243 214 183 220 252 237 281 257 198 185 195 207 207 206 210 205 199 199 200 204 207
327 307 293 214 202 178 164 163 164 166 168 158 131 175 205 252 230 178 168 134 0 330 315 335 62 48 10 347 0 26 17 16 31 45 41 32 315 319 320 307 319 219 262 295 160 236 297 73 5 319 96 192 235 184 165 185 162 152 216 210 157 46 292 197 127 97 174 248 225 188 241 257 258 255 203 179 187 195 200 199 201 205 198 188 189 193 199 204
335 303 244 191 181 165 160 161 168 176 169 157 159 208 228 246 198 189 173 128 28 351 328 242 64 189 203 189 288 335 15 31 342 270 96 0 288 270 301 291 243 270 296 279 222 253 299 57 19 347 47 32 297 174 149 135 179 183 192 182 134 154 38 31 263 235 243 263 246 195 251 270 262 258 177 179 200 197 196 196 197 198 194 190 190 193 199 205
341 306 201 193 182 166 162 162 168 174 159 143 193 242 241 203 184 206 198 143 173 148 140 194 260 46 221 196 186 328 337 175 304 45 116 339 5 176 294 301 243 328 342 291 236 150 279 295 99 135 25 25 48 151 136 96 35 55 119 84 67 181 175 36 313 284 273 281 274 216 261 268 230 225 171 199 209 199 194 196 196 198 198 197 193 195 202 205
341 97 173 192 180 168 166 166 165 162 149 156 219 223 234 231 228 235 235 192 157 166 183 225 243 58 191 202 180 276 300 238 116 94 145 289 128 177 270 306 270 356 18 6 253 132 302 300 144 153 168 28 64 108 165 138 77 77 108 70 7 83 180 176 288 280 273 283 287 285 297 267 219 238 310 244 226 205 194 193 198 201 199 196 192 193 200 203
336 127 98 176 175 169 169 171 167 153 149 187 216 192 218 262 256 253 257 249 204 203 225 184 182 217 206 225 239 205 339 61 138 139 161 198 184 191 231 250 258 329 3 31 75 48 293 281 282 251 150 158 70 33 2 139 146 169 154 124 34 118 156 184 221 264 263 272 282 288 293 292 85 24 314 287 266 220 199 194 198 198 193 191 195 199 203 206
338 122 90 149 166 169 168 168 161 133 149 198 222 213 222 262 270 280 278 250 227 239 243 178 174 221 198 213 223 188 153 90 129 138 160 187 220 193 198 277 267 290 320 19 70 0 298 284 288 283 95 100 97 79 23 338 54 93 100 101 188 200 197 199 232 245 240 251 262 277 289 307 64 9 318 304 291 234 205 197 195 193 189 192 199 206 211 213
24 135 131 145 166 174 168 158 111 90 188 208 213 222 243 262 256 284 291 233 225 236 231 193 180 188 193 206 184 163 165 135 106 135 173 193 235 209 293 332 312 263 270 283 31 17 315 270 300 282 356 65 108 106 100 137 97 77 62 43 324 243 228 211 224 230 226 236 241 274 285 296 61 14 347 346 1 116 195 196 188 180 185 195 204 211 217 220
355 323 167 157 180 181 174 154 148 190 217 210 226 244 251 250 231 274 297 212 220 220 197 207 198 192 212 213 178 176 183 177 138 131 210 224 210 229 285 328 322 219 183 174 179 143 174 307 320 297 322 302 217 112 112 134 127 95 65 41 31 286 266 243 251 334 263 236 211 245 268 335 58 27 22 42 57 66 77 120 153 147 167 198 211 215 220 223
339 314 164 45 178 179 185 231 188 200 226 200 230 250 244 236 228 250 259 221 222 190 168 206 200 188 195 144 153 169 178 194 190 175 224 182 174 246 296 328 319 197 194 35 155 170 185 339 315 253 213 178 170 153 147 151 152 128 82 55 16 341 279 237 216 241 247 265 273 252 264 57 63 44 45 55 65 70 74 96 125 138 184 219 222 219 221 225
339 297 119 32 164 176 189 319 173 192 187 181 220 242 239 239 232 249 265 253 243 213 188 250 188 154 123 113 127 122 140 221 199 173 195 195 212 273 293 323 325 170 17 74 147 153 166 108 232 253 241 212 201 193 171 149 137 138 106 85 37 11 333 242 206 197 218 338 346 249 277 37 60 53 47 46 57 68 79 111 129 140 179 212 223 219 217 221
356 46 55 43 157 176 141 48 62 297 160 168 213 199 194 222 245 280 277 258 253 218 205 245 144 129 112 163 152 122 110 15 90 162 181 192 202 246 281 307 6 86 66 129 144 135 109 117 195 258 273 273 271 329 68 130 147 144 106 82 63 33 19 4 264 219 262 329 301 260 332 331 20 43 38 33 39 51 54 82 110 128 158 181 204 213 210 211
12 37 8 17 145 176 97 62 29 0 180 202 222 183 188 210 281 316 239 217 328 248 209 204 168 173 181 177 163 148 144 103 144 170 173 196 223 264 291 307 329 38 92 148 150 133 126 151 178 230 274 297 323 17 15 348 137 133 118 88 84 68 52 60 47 319 306 277 265 22 344 304 350 34 32 25 21 19 27 48 94 136 160 167 174 192 200 205
17 53 35 2 348 183 154 23 359 345 270 249 239 210 210 204 234 315 219 258 325 241 195 207 219 207 188 171 165 162 153 130 220 188 172 195 264 293 287 301 333 0 63 142 143 117 156 168 165 198 276 303 7 28 12 349 5 90 101 91 98 94 72 74 86 150 202 243 296 341 325 301 350 26 32 32 13 1 12 26 67 135 166 172 168 170 180 189
11 65 66 10 315 268 281 310 325 313 259 241 230 219 213 207 209 228 246 305 325 236 191 219 231 209 181 168 154 159 174 179 200 216 202 168 168 203 180 191 300 0 36 100 62 30 201 176 156 209 269 298 4 20 26 357 292 300 28 59 111 111 93 90 116 153 217 260 293 310 303 310 357 19 37 48 37 17 14 25 48 79 141 176 186 193 190 183
8 341 336 329 297 288 301 307 311 302 288 211 207 208 215 217 209 342 258 235 260 297 175 222 258 209 167 173 172 187 201 191 189 206 188 165 173 214 212 210 211 21 33 97 83 34 277 225 129 174 239 254 337 7 38 116 262 273 318 355 174 140 123 121 136 159 257 262 298 300 284 314 23 40 52 59 59 50 41 36 34 46 70 139 193 198 197 193
336 320 321 314 294 302 321 334 344 300 281 203 196 189 200 208 209 347 271 222 230 247 191 265 311 306 160 191 201 215 208 194 196 210 187 177 180 190 189 201 195 182 37 108 135 37 321 205 129 176 226 225 28 343 317 328 291 272 274 278 254 224 180 146 143 182 221 204 279 283 269 326 20 74 80 73 74 66 51 37 23 27 43 32 12 165 174 182
326 321 315 300 293 293 318 14 103 225 261 243 65 311 260 241 341 346 295 234 233 234 221 11 290 210 175 201 214 227 220 206 211 218 189 180 167 176 183 182 181 181 34 147 142 25 171 161 146 189 232 197 100 5 342 334 280 266 268 277 288 282 254 173 159 188 205 196 233 254 247 343 327 142 110 81 75 70 58 53 38 21 15 357 4 90 146 154